Regional Weather Roundup
Issued by NWS New Orleans/Baton Rouge, LA

Home | Current Version | Previous Version | Text Only | Print | Product List | Glossary On
Versions: 1 2 3 4 5 6 7 8 9 10 11 12 13 14 15 16 17 18 19 20 21 22 23 24 25 26 27 28 29 30 31 32 33 34 35 36 37 38 39 40 41 42 43 44 45 46 47 48 49 50
000
ASUS44 KLIX 291205
RWRLIX
NEW ORLEANS REGIONAL WEATHER ROUNDUP
NATIONAL WEATHER SERVICE NEW ORLEANS LA
700 AM CDT FRI AUG 29 2014

NOTE: "FAIR" INDICATES FEW OR NO CLOUDS BELOW 12,000 FEET WITH NO
      SIGNIFICANT WEATHER AND/OR OBSTRUCTIONS TO VISIBILITY.
      SKY/WX - SKY CONDITION AND SIGNIFICANT WEATHER.
      TMP - AIR TEMPERATURE.     DP    - DEWPOINT TEMPERATURE.
      RH  - RELATIVE HUMIDITY.   PRES  - PRESSURE.
      HI  - HEAT INDEX.          WCI   - WIND CHILL INDEX.

*  THESE STATIONS ARE NOT NWS OR FAA STATIONS AND ARE NOT UNDER
   NWS QUALITY CONTROL.

LAZ038-040-048-061>063-065>067-069-291300-
SOUTHEAST LOUISIANA

CITY           SKY/WX    TMP DP  RH WIND       PRES   REMARKS
N.O. AUDUBON     N/A     81  76  85 MISG        N/A
6HR MIN TEMP:  78; 6HR MAX TEMP:  82;

N.O. INTL ARPT MOCLDY    80  73  79 E5        29.94S
6HR MIN TEMP:  78; 6HR MAX TEMP:  81;

N.O. LAKEFRONT PTCLDY    82  75  79 E8        29.95S
6HR MIN TEMP:  79; 6HR MAX TEMP:  82;

N.O. DOWNTOWN*   N/A     82  72  69 E7        29.95S
6HR MIN TEMP:  82; 6HR MAX TEMP:  82;

SLIDELL        CLEAR     72  69  90 NE5       29.95F
6HR MIN TEMP:  71; 6HR MAX TEMP:  74;

BATON ROUGE    CLEAR     74  72  93 E6        29.95S
6HR MIN TEMP:  73; 6HR MAX TEMP:  78;

BOOTHVILLE     MOCLDY    83  78  85 E5        29.93F
6HR MIN TEMP:  80; 6HR MAX TEMP:  83;

BELLE CHASSE   MOCLDY    78  73  84 NE3       29.93F
6HR MIN TEMP:  75; 6HR MAX TEMP:  78;

BOGALUSA*        N/A     72  69  90 N3        30.00R
6HR MIN TEMP:  72; 6HR MAX TEMP:  75;

GALLIANO*      NOT AVBL
NEW ROADS*       N/A     74  73  97 CALM      29.96R
6HR MIN TEMP:  74; 6HR MAX TEMP:  78;

GONZALES*        N/A     74  74 100 CALM      29.95R
6HR MIN TEMP:  73; 6HR MAX TEMP:  76;

HAMMOND*       CLEAR     75  70  83 CALM      29.98R
HOUMA*         PTCLDY    77  73  88 NE7       29.92S
PORT FOURCHON* MOSUNNY   84  77  79 SE10      29.93F

$$

MSZ070-080>082-291300-
SOUTHERN MISSISSIPPI

CITY           SKY/WX    TMP DP  RH WIND       PRES   REMARKS
MCCOMB         PTCLDY    73  71  93 CALM      29.99R
6HR MIN TEMP:  73; 6HR MAX TEMP:  78;

GULFPORT       CLEAR     75  71  87 N3        29.96S
6HR MIN TEMP:  75; 6HR MAX TEMP:  77;

BILOXI         CLEAR     75  71  87 NE6       29.96S
6HR MIN TEMP:  75; 6HR MAX TEMP:  79;

PASCAGOULA     CLEAR     72  71  97 CALM      29.97R FOG
6HR MIN TEMP:  69; 6HR MAX TEMP:  72;


$$

COASTAL OBSERVATIONS
LAKE AND NEARSHORE STATIONS

STATION/POSITION TIME  TEMP    WIND        PRES    WAVE
                       AIR SEA DIR/SP/G            HT/PER
                 (UTC) (F)     (DEG/KT/KT) (MB)    (FT/S)
PASCAGOULA       1200   78      40/  8/ 10 1014.1
WAVELAND YACHT   1200   78      60/ 10/ 10 1013.7
GRAND ISLE       1200   84 84  110/  5/  8 1013.8
SOUTHWEST PASS   1200   84 88  100/  9/ 11 1013.3
NEW CANAL        1200   80 83   70/  3/  5 1014.3
SHELL BEACH      1200   82 81   70/  6/  7 1013.7

OFFSHORE STATIONS

STATION/POSITION TIME  TEMP    WIND        PRES    WAVE
                       AIR SEA DIR/SP/G            HT/PER
                 (UTC) (F)     (DEG/KT/KT) (MB)    (FT/S)
64 S DAUPHIN ISL 1127   85 85  140/ 10/ 12 1013.6

$$



USA.gov is the U.S. government's official web portal to all federal, state and local government web resources and services.